TimeEET,TemperatureF,Dew PointF,Humidity,Sea Level PressureIn,VisibilityMPH,Wind Direction,Wind SpeedMPH,Gust SpeedMPH,PrecipitationIn,Events,Conditions,WindDirDegrees,DateUTC
12:20 AM,32.0,30.2,93,30.21,-9999.0,Variable,1.2,-,N/A,,Clear,0,2012-11-04 22:20:00
12:50 AM,32.0,30.2,93,30.21,-9999.0,West,2.3,-,N/A,,Clear,270,2012-11-04 22:50:00
1:20 AM,32.0,30.2,93,30.21,-9999.0,Variable,2.3,-,N/A,,Clear,0,2012-11-04 23:20:00
1:50 AM,32.0,32.0,100,30.21,-9999.0,West,2.3,-,N/A,,Clear,270,2012-11-04 23:50:00
2:00 AM,32,32,98,,12,West,2.3,,,,,270,2012-11-05 00:00:00
2:20 AM,30.2,30.2,100,30.21,-9999.0,Calm,Calm,-,N/A,,Clear,0,2012-11-05 00:20:00
2:50 AM,32.0,30.2,93,30.21,-9999.0,Calm,Calm,-,N/A,,Clear,0,2012-11-05 00:50:00
3:20 AM,30.2,30.2,100,30.21,-9999.0,Calm,Calm,-,N/A,,Clear,0,2012-11-05 01:20:00
3:50 AM,30.2,30.2,100,30.21,-9999.0,Calm,Calm,-,N/A,,Clear,0,2012-11-05 01:50:00
4:20 AM,30.2,28.4,93,30.21,-9999.0,Calm,Calm,-,N/A,,Clear,0,2012-11-05 02:20:00
4:50 AM,28.4,28.4,100,30.21,-9999.0,Calm,Calm,-,N/A,,Clear,0,2012-11-05 02:50:00
5:20 AM,28.4,28.4,100,30.21,-9999.0,SE,3.5,-,N/A,,Clear,130,2012-11-05 03:20:00
5:50 AM,28.4,28.4,100,30.21,6.2,Variable,1.2,-,N/A,,Partly Cloudy,0,2012-11-05 03:50:00
6:20 AM,28.4,26.6,93,30.24,6.2,Variable,1.2,-,N/A,,Partly Cloudy,0,2012-11-05 04:20:00
6:50 AM,30.2,30.2,100,30.24,6.2,Variable,1.2,-,N/A,,Scattered Clouds,0,2012-11-05 04:50:00
7:20 AM,32.0,30.2,93,30.24,6.2,Variable,2.3,-,N/A,,Scattered Clouds,0,2012-11-05 05:20:00
7:50 AM,37.4,35.6,93,30.24,6.2,Variable,2.3,-,N/A,,Scattered Clouds,0,2012-11-05 05:50:00
8:00 AM,37,34,85,,12,West,2.3,,,,Partly Cloudy,280,2012-11-05 06:00:00
8:20 AM,41.0,35.6,81,30.24,6.2,Variable,1.2,-,N/A,,Scattered Clouds,0,2012-11-05 06:20:00
8:50 AM,46.4,37.4,71,30.24,6.2,Variable,1.2,-,N/A,,Scattered Clouds,0,2012-11-05 06:50:00
9:20 AM,46.4,37.4,71,30.24,6.2,Variable,1.2,-,N/A,,Scattered Clouds,0,2012-11-05 07:20:00
9:50 AM,50.0,35.6,58,30.24,6.2,Variable,1.2,-,N/A,,Scattered Clouds,0,2012-11-05 07:50:00
10:20 AM,51.8,37.4,58,30.24,6.2,Variable,2.3,-,N/A,,Mostly Cloudy,0,2012-11-05 08:20:00
10:50 AM,53.6,35.6,51,30.21,6.2,Variable,2.3,-,N/A,,Mostly Cloudy,0,2012-11-05 08:50:00
11:20 AM,53.6,33.8,47,30.21,6.2,West,8.1,-,N/A,,Scattered Clouds,260,2012-11-05 09:20:00
11:50 AM,55.4,32.0,41,30.18,6.2,West,9.2,-,N/A,,Scattered Clouds,280,2012-11-05 09:50:00
12:20 PM,55.4,32.0,41,30.18,6.2,West,6.9,-,N/A,,Scattered Clouds,270,2012-11-05 10:20:00
12:50 PM,55.4,32.0,41,30.18,6.2,WSW,6.9,-,N/A,,Scattered Clouds,240,2012-11-05 10:50:00
1:20 PM,55.4,32.0,41,30.18,6.2,West,8.1,-,N/A,,Scattered Clouds,260,2012-11-05 11:20:00
1:50 PM,55.4,30.2,38,30.18,6.2,West,10.4,-,N/A,,Scattered Clouds,280,2012-11-05 11:50:00
2:00 PM,56,31,26,,12,West,10.4,,,,Partly Cloudy,280,2012-11-05 12:00:00
2:20 PM,55.4,28.4,36,30.18,6.2,West,13.8,-,N/A,,Scattered Clouds,260,2012-11-05 12:20:00
2:50 PM,55.4,28.4,36,30.18,6.2,West,12.7,-,N/A,,Scattered Clouds,260,2012-11-05 12:50:00
3:20 PM,53.6,32.0,44,30.18,6.2,WSW,9.2,-,N/A,,Scattered Clouds,250,2012-11-05 13:20:00
3:50 PM,51.8,32.0,47,30.18,6.2,WSW,6.9,-,N/A,,Scattered Clouds,240,2012-11-05 13:50:00
4:20 PM,50.0,32.0,50,30.18,6.2,SSW,5.8,-,N/A,,Scattered Clouds,210,2012-11-05 14:20:00
4:50 PM,46.4,32.0,57,30.18,6.2,Variable,2.3,-,N/A,,Scattered Clouds,0,2012-11-05 14:50:00
5:20 PM,42.8,32.0,66,30.18,6.2,South,3.5,-,N/A,,Scattered Clouds,180,2012-11-05 15:20:00
5:50 PM,41.0,32.0,70,30.18,6.2,Variable,2.3,-,N/A,,Scattered Clouds,0,2012-11-05 15:50:00
6:20 PM,46.4,32.0,57,30.18,6.2,WSW,3.5,-,N/A,,Scattered Clouds,240,2012-11-05 16:20:00
6:50 PM,42.8,32.0,66,30.18,6.2,South,3.5,-,N/A,,Scattered Clouds,190,2012-11-05 16:50:00
7:20 PM,42.8,32.0,66,30.18,6.2,SSW,4.6,-,N/A,,Scattered Clouds,200,2012-11-05 17:20:00
7:50 PM,41.0,33.8,76,30.18,6.2,SW,4.6,-,N/A,,Scattered Clouds,230,2012-11-05 17:50:00
8:00 PM,42,32,59,,12,SW,4.6,,,,Partly Cloudy,230,2012-11-05 18:00:00
8:20 PM,39.2,32.0,75,30.21,6.2,West,3.5,-,N/A,,Scattered Clouds,280,2012-11-05 18:20:00
8:50 PM,41.0,33.8,76,30.21,6.2,SW,3.5,-,N/A,,Scattered Clouds,220,2012-11-05 18:50:00
9:20 PM,39.2,32.0,75,30.18,6.2,WSW,3.5,-,N/A,,Scattered Clouds,240,2012-11-05 19:20:00
9:50 PM,39.2,32.0,75,30.18,6.2,SSW,2.3,-,N/A,,Scattered Clouds,200,2012-11-05 19:50:00
10:20 PM,33.8,30.2,87,30.18,6.2,WNW,2.3,-,N/A,,Partly Cloudy,290,2012-11-05 20:20:00
10:50 PM,33.8,30.2,87,30.18,-9999.0,Calm,Calm,-,N/A,,Clear,0,2012-11-05 20:50:00
11:20 PM,32.0,30.2,93,30.18,-9999.0,Calm,Calm,-,N/A,,Clear,0,2012-11-05 21:20:00